{"data":{"norad_id":67420,"intl_designator":"2026-005S","name":"STARLINK-35564","alt_names":[],"object_type":"PAYLOAD","status":"ACTIVE","operator":null,"country":"US","launch_date":"2026-01-12","launch_site_code":"AFETR","launch_vehicle":null,"mission":null,"orbit_class":"UNKNOWN","rcs_meters":null,"size_class":null,"mass_kg":null,"dimensions":null,"purposes":["comms"],"wikipedia_slug":null,"has_3d_model":false,"image_url":null,"decayed_at":null,"tle_current":{"epoch":"2026-09-19T22:32:28.053312Z","epoch_age_seconds":123912,"freshness":"FRESH","line1":"1 67420U 26005S   26262.93921358  .00007151  00000+0  26906-3 0  9999","line2":"2 67420  42.9999 221.0341 0001026 285.9586  74.1153 15.27587896 38402","mean_motion":15.27587896,"eccentricity":0.0001026,"inclination_deg":42.9999,"raan_deg":221.0341,"arg_perigee_deg":285.9586,"mean_anomaly_deg":74.1153,"bstar":0.00026906,"rev_number":3840,"period_min":94.266261455112,"perigee_km":482.32149740928,"apogee_km":483.72940794457,"semimajor_km":6861.1624526769,"source":"CELESTRAK","updated_at":"2026-09-20T09:00:43.522350Z"}}}